This is the latest recevied weather packets stored in our database for station/object KD8NVS-13. If no packets are shown the sender has not sent any weather packets the latest 10 day(s).
| Time | Temp. | Humidity | Pressure | Rain* | Wind** | Luminosity | Snow |
|---|---|---|---|---|---|---|---|
| 1778080201 | 10.56° C | 76% | 1002.1 hPa | 0 mm | - | 399 W/m² | - |
| 1778079897 | 10.56° C | 77% | 1001.8 hPa | 0 mm | - | 459 W/m² | - |
| 1778079594 | 10.56° C | 76% | 1001.8 hPa | 0 mm | - | 339 W/m² | - |
| 1778079290 | 10.56° C | 78% | 1001.8 hPa | 0 mm | - | 298 W/m² | - |
| 1778078988 | 10.56° C | 81% | 1001.8 hPa | 0 mm | - | 276 W/m² | - |
| 1778078685 | 10.56° C | 81% | 1001.8 hPa | 0 mm | - | 269 W/m² | - |
| 1778078383 | 10.56° C | 83% | 1001.8 hPa | 0 mm | - | 248 W/m² | - |
| 1778078080 | 10.56° C | 83% | 1001.5 hPa | 0 mm | - | 232 W/m² | - |
| 1778077778 | 10° C | 82% | 1001.5 hPa | 0 mm | - | 254 W/m² | - |
| 1778077475 | 10° C | 84% | 1001.1 hPa | 0 mm | - | 279 W/m² | - |
| 1778077173 | 10° C | 85% | 1001.5 hPa | 0 mm | - | 236 W/m² | - |
| 1778076871 | 10° C | 87% | 1001.1 hPa | 0 mm | - | 268 W/m² | - |
| 1778076570 | 10° C | 87% | 1001.1 hPa | 0 mm | - | 173 W/m² | - |
| 1778076266 | 10° C | 89% | 1000.8 hPa | 0 mm | - | 216 W/m² | - |
| 1778075963 | 10.56° C | 88% | 1000.8 hPa | 0 mm | - | 202 W/m² | - |
| 1778075660 | 10° C | 86% | 1000.8 hPa | 0 mm | - | 215 W/m² | - |
| 1778075356 | 10° C | 88% | 1000.5 hPa | 0 mm | - | 240 W/m² | - |
| 1778075052 | 10° C | 88% | 1000.5 hPa | 0 mm | - | 263 W/m² | - |
| 1778074749 | 10° C | 89% | 1000.5 hPa | 0 mm | - | 221 W/m² | - |
| 1778074446 | 10° C | 91% | 1000.5 hPa | 0 mm | - | 194 W/m² | - |
| 1778074143 | 10° C | 90% | 1000.8 hPa | 0 mm | - | 176 W/m² | - |
| 1778073840 | 9.44° C | 90% | 1000.5 hPa | 0 mm | - | 149 W/m² | - |
| 1778073538 | 9.44° C | 91% | 1000.5 hPa | 0 mm | - | 143 W/m² | - |
| 1778073234 | 10° C | 91% | 1000.8 hPa | 0 mm | - | 151 W/m² | - |
| 1778072931 | 9.44° C | 92% | 1000.5 hPa | 0 mm | - | 136 W/m² | - |
* Rain latest hour (hover to see other rain measurements)
** Current wind speed in m/s (hover to see current wind gust speed)